{"data":{"norad_id":54672,"intl_designator":"2022-166AG","name":"ONEWEB-0608","alt_names":[],"object_type":"PAYLOAD","status":"ACTIVE","operator":null,"country":"UK","launch_date":"2022-12-08","launch_site_code":"AFETR","launch_vehicle":null,"mission":null,"orbit_class":"UNKNOWN","rcs_meters":null,"size_class":null,"mass_kg":null,"dimensions":null,"purposes":["comms"],"wikipedia_slug":null,"has_3d_model":false,"image_url":null,"decayed_at":null,"tle_current":{"epoch":"2026-09-19T16:15:54.363456Z","epoch_age_seconds":93009,"freshness":"FRESH","line1":"1 54672U 22166AG  26262.67771254  .00000060  00000+0  11259-3 0  9994","line2":"2 54672  87.9289 225.1668 0002421  90.3781 269.7630 13.21827524184030","mean_motion":13.21827524,"eccentricity":0.0002421,"inclination_deg":87.9289,"raan_deg":225.1668,"arg_perigee_deg":90.3781,"mean_anomaly_deg":269.763,"bstar":0.00011259,"rev_number":18403,"period_min":108.94008286667,"perigee_km":1175.9182810094,"apogee_km":1179.5768403137,"semimajor_km":7555.8845606615,"source":"CELESTRAK","updated_at":"2026-09-20T09:00:44.747562Z"}}}